GAOFEN-1

Last updated on Mon Sep 21 2026 00:02:45 GMT+0000 (Coordinated Universal Time)

1 39150U 13018A 26263.61508521 .00000136 00000+0 26788-4 0 9992 2 39150 97.9010 333.6990 0016244 322.7680 37.2403 14.76540755722323
UTC large
Height (km)
Speed (km/s)
/
Latitude / Longitude
Inclination (degrees)
Orbital Period (minutes)
Azimuth
Elevation
Range (km)
Doppler Factor

Next 0 passes for location: London (51.5072 / 0.1276)

No passes found over London.
GAOFEN-1